THOR ABLESTAR DEB, 715

Orbit data source: Space-Track

THOR ABLESTAR DEB, 715 is space debris in LEO originally from a launch on Thu, 05 Dec 1963 UTC launched from the Air Force Western Test Range (AFWTR). Debris objects in space refer to the collection of defunct objects orbiting the Earth. Examples of debris include non-operational satellites, rocket bodies, and fragments generated from explosions, collisions, or faulty payload assembly.

Loading next visibility...
Identifier
715, 1963-049E
Orbit
LEO
Last TLE update
11 hours ago
Origin
Manufacturer
Unknown
Mission
Spacecraft
Bus & Motor
Unknown
Mass
Unknown
Launch date (UTC)
1963-12-05 (62 years ago)
Launch vehicle
Unknown
Launch site
Air Force Western Test Range (AFWTR)
Object type
Payload
Rocket body
Debris
Shape & HBR
Unknown
Radar Cross Section
Small (<0.1 m²)

Expand to show TLE details & history

TLE from 11 hours ago
0 THOR ABLESTAR DEB
1 00715U 63049E   25182.70440289  .00000574  00000-0  58899-3 0  9995
2 00715  89.9103  80.9369 0030634 132.8712 280.9008 13.74982690 55219
Epoch: 2025-07-01T16:54Z
TLE epoch observation values (Epoch: 2025-07-01T16:54:20.409Z)
Latitude
53.52244°
Longitude
-92.52348°
Altitude
986.392 km
Speed
7.366 km/s
True Right ascension
05h 24m 13s
True Declination
53° 21' 47"
Sunlit
Object was in daylight at epoch
Visualization orbit readout
Latitude
0.60225°
Longitude
87.35053°
Altitude
969.465 km
Speed
7.375 km/s
Apparent Right ascension
19h 47m 24s
Apparent Declination
-47° 47' 39"
Sunlit
Object is in full shadow
Visualization observer readout
Local Sidereal Time
15:40:53
Azimuth
142.593° SSE
Elevation
-13.325°
Doppler factor
1
Orbital elements
Apogee altitude
1,001.287 km
Perigee altitude
956.213 km
Semi-major axis
7,356.887 km
Eccentricity
0.00306
Inclination
89.9103°
RAAN
80.9369°
Arg. of periapsis
132.8712°
True anomaly
Unknown
Mean anomaly
280.9008°
Eccentric anomaly
Unknown
Mean motion
3.43955 °/min
Orbital period
104.66 mins
BSTAR
0.00058899
Loading maneuver chart data...
Loading SW <> Apogee altitude chart data...
Loading historical data...
Loading historical data...
Loading historical data...
Loading historical data...
Loading historical data...
Loading historical data...
Loading historical data...

THOR ABLESTAR DEB Visibility forecast

Observer location: undefined°, undefined°

Span
Click to sort rows by Start time (UTC) header in descending order
Start Az.
Max El. time (UTC)
Max El. Az.
Max El.
End time (UTC)
End Az.
11 mins2025-07-02 05:27:33.284Z5.608° NNE2025-07-02 05:32:33.284Z48.313° ENE43.668°2025-07-02 05:38:33.284Z177.561° S
4 mins2025-07-02 07:15:33.284Z302.335° NW2025-07-02 07:16:33.284Z291.414° WNW14.239°2025-07-02 07:19:33.284Z260.369° W
11 mins2025-07-02 17:12:33.284Z158.834° S2025-07-02 17:17:33.284Z85.856° E40.772°2025-07-02 17:23:33.284Z5.896° NNE
7 mins2025-07-02 18:59:33.284Z245.94° WSW2025-07-02 19:02:33.284Z279.92° WNW18.546°2025-07-02 19:06:33.284Z322.636° NNW
|